sat.trackr.live / text

‹ back to catalog

STARLINK-5414

NORAD 54809 · 2022-175BD

PAYLOAD ACTIVE UNKNOWN

§ Identity

Operator
Country
US
Launch date
2022-12-17
Launch site
AFETR
Launch vehicle
Mass (kg)
RCS (m²)

Purposes: comms

External: N2YO · Heavens-Above · Gunter

§ Orbital elements

Epoch: 2026-05-25T01:11:48.877728Z

Period
95.44 min
Inclination
53.2127°
Eccentricity
0.0001212
Mean motion
15.08842029 rev/d
Perigee alt
538.9 km
Apogee alt
540.6 km
Semi-major
6,917.9 km
B*
3.5117e-5
RAAN
45.8804°
Arg perigee
86.9555°
Mean anomaly
273.1576°
Rev number
19,166

§ Raw data

STARLINK-54141 54809U 22175BD  26145.04987127  .00000271  00000+0  35117-4 0  99992 54809  53.2127  45.8804 0001212  86.9555 273.1576 15.08842029191664

JSON: /api/v1/satellites/54809 · /tle

For live sub-satellite position, see the globe view (requires WebGL).

§ Visibility from observer

Set your observer location to see the next 7 days of passes ≥ 10°. The values pass through the URL so the page stays shareable.

No JS? Fill the form by hand. The geolocation button needs JavaScript.